Location: Gunung Kajang
(2.4167°N, 113.7167°E)
Time: 03:52:42
(UTC+00:00)

H-2A R/B - Pass Details

Date: 29 May 2022
Orbit: 491 x 536 km, 97.3° (Epoch: 01 April)

Event Time Altitude Azimuth Distance (km) Brightness Sun altitude
Rises 20:44:05 0° 14° (NNE) 2,554 6.8 -21.8°
Reaches altitude 10° 20:46:09 10° 16° (NNE) 1,675 5.8 -21.3°
Maximum altitude 20:49:44 72° 101° (E) 517 2.7 -20.5°
Enters shadow 20:50:59 38° 176° (S) 763 3.3 -20.2°
